Погода в Патрушевой

Россия / Тюменская область     57°05′28″N   65°32′35″E
темп.,
°C
ветер,
м/с
пор.,
м/с
влажн.,
%
обл.,
%
осадки,
мм/ч
давл.,
гПа
погр.,
м
5 марта, пт
пт523:00−7зюз41089100 0.2 997332
02:00−12юз36920 0.0 998118
05:00−11ю499134 0.0 997265
08:00−7ю51393100 0.4 993804
11:00−2зюз61181100 1.3 9931105
14:00−1зюз61182100 0.2 9951285
17:00−2зюз5118099 0.3 9981103
20:00−5юз41184100 0.0 998435
6 марта, сб
сб623:00−7зюз3789100 0.0 999158
02:00−9зюз3992100 0.0 999244
05:00−12з4129260 0.0 1002345
08:00−13з5138836 0.0 1004475
11:00−9з5108118 0.0 1005687
14:00−6з597956 0.0 10061097
17:00−7з5108177 0.2 10061410
20:00−9зюз41188100 0.1 1007668
7 марта, вс
вс723:00−13зюз3119098 0.2 1009363
02:00−16зюз39920 0.0 1010199
05:00−19зюз23950 0.0 101262
08:00−19юз22947 0.0 101221
11:00−12ю128251 0.0 1012259
14:00−9вюв2385100 0.0 1009446
17:00−10всв3595100 0.4 1006335
20:00−10ссв4995100 0.9 1002407
8 марта, пн
пн823:00−11с4994100 1.9 1001388
02:00−13сз499499 0.3 1002312
05:00−17зсз499799 0.3 1005222
08:00−19з379798 0.0 1007187
11:00−14зюз359186 0.0 1008321
14:00−10юз358279 0.0 1008832
17:00−11ююз378689 0.0 1008525
20:00−11ю3994100 0.2 1007597
9 марта, вт
вт923:00−12ююв3895100 0.3 1006283
02:00−9ю399697 0.3 1006303
05:00−10юз4108990 0.3 1007301
08:00−11ю3891100 0.0 1005217
11:00−7ююв51194100 0.5 1001751
14:00−3ю71488100 1.2 9981368
17:00−5ююз7139083 1.9 9961320
20:00−7зюз71481100 0.5 9981067